"Time","Value","Approval","myLocation"
"2023-05-06 00:00",11.698,"Approved","OW513"
"2023-05-06 01:00",11.682,"Approved","OW513"
"2023-05-06 02:00",11.921,"Approved","OW513"
"2023-05-06 03:00",11.944,"Approved","OW513"
"2023-05-06 04:00",11.957,"Approved","OW513"
"2023-05-06 05:00",11.959,"Approved","OW513"
"2023-05-06 06:00",11.721,"Approved","OW513"
"2023-05-06 07:00",11.703,"Approved","OW513"
"2023-05-06 08:00",11.692,"Approved","OW513"
"2023-05-06 09:00",11.685,"Approved","OW513"
"2023-05-06 10:00",11.679,"Approved","OW513"
"2023-05-06 11:00",11.678,"Approved","OW513"
"2023-05-06 12:00",11.669,"Approved","OW513"
"2023-05-06 13:00",11.668,"Approved","OW513"
"2023-05-06 14:00",11.663,"Approved","OW513"
"2023-05-06 15:00",11.659,"Approved","OW513"
"2023-05-06 16:00",11.661,"Approved","OW513"
"2023-05-06 17:00",11.658,"Approved","OW513"
"2023-05-06 18:00",11.652,"Approved","OW513"
"2023-05-06 19:00",11.655,"Approved","OW513"
"2023-05-06 20:00",11.653,"Approved","OW513"
"2023-05-06 21:00",11.894,"Approved","OW513"
"2023-05-06 22:00",11.764,"Approved","OW513"
"2023-05-06 23:00",11.669,"Approved","OW513"
"2023-05-07 00:00",11.659,"Approved","OW513"
"2023-05-07 01:00",11.649,"Approved","OW513"
"2023-05-07 02:00",11.648,"Approved","OW513"
"2023-05-07 03:00",11.803,"Approved","OW513"
"2023-05-07 04:00",11.914,"Approved","OW513"
"2023-05-07 05:00",11.924,"Approved","OW513"
"2023-05-07 06:00",11.939,"Approved","OW513"
"2023-05-07 07:00",11.82,"Approved","OW513"
"2023-05-07 08:00",11.687,"Approved","OW513"
"2023-05-07 09:00",11.674,"Approved","OW513"
"2023-05-07 10:00",11.664,"Approved","OW513"
"2023-05-07 11:00",11.655,"Approved","OW513"
"2023-05-07 12:00",11.65,"Approved","OW513"
"2023-05-07 13:00",11.648,"Approved","OW513"
"2023-05-07 14:00",11.642,"Approved","OW513"
"2023-05-07 15:00",11.639,"Approved","OW513"
"2023-05-07 16:00",11.633,"Approved","OW513"
"2023-05-07 17:00",11.634,"Approved","OW513"
"2023-05-07 18:00",11.634,"Approved","OW513"
"2023-05-07 19:00",11.629,"Approved","OW513"
"2023-05-07 20:00",11.625,"Approved","OW513"
"2023-05-07 21:00",11.629,"Approved","OW513"
"2023-05-07 22:00",11.625,"Approved","OW513"
"2023-05-07 23:00",11.618,"Approved","OW513"
"2023-05-08 00:00",11.801,"Approved","OW513"
"2023-05-08 01:00",11.88,"Approved","OW513"
"2023-05-08 02:00",11.895,"Approved","OW513"
"2023-05-08 03:00",11.908,"Approved","OW513"
"2023-05-08 04:00",11.918,"Approved","OW513"
"2023-05-08 05:00",11.923,"Approved","OW513"
"2023-05-08 06:00",11.688,"Approved","OW513"
"2023-05-08 07:00",11.659,"Approved","OW513"
"2023-05-08 08:00",11.651,"Approved","OW513"
"2023-05-08 09:00",11.645,"Approved","OW513"
"2023-05-08 10:00",11.638,"Approved","OW513"
"2023-05-08 11:00",11.63,"Approved","OW513"
"2023-05-08 12:00",11.629,"Approved","OW513"
"2023-05-08 13:00",11.623,"Approved","OW513"
"2023-05-08 14:00",11.62,"Approved","OW513"
"2023-05-08 15:00",11.616,"Approved","OW513"
"2023-05-08 16:00",11.617,"Approved","OW513"
"2023-05-08 17:00",11.61,"Approved","OW513"
"2023-05-08 18:00",11.868,"Approved","OW513"
"2023-05-08 19:00",11.889,"Approved","OW513"
"2023-05-08 20:00",11.646,"Approved","OW513"
"2023-05-08 21:00",11.629,"Approved","OW513"
"2023-05-08 22:00",11.621,"Approved","OW513"
"2023-05-08 23:00",11.615,"Approved","OW513"
"2023-05-09 00:00",11.607,"Approved","OW513"
"2023-05-09 01:00",11.86,"Approved","OW513"
"2023-05-09 02:00",11.877,"Approved","OW513"
"2023-05-09 03:00",11.892,"Approved","OW513"
"2023-05-09 04:00",11.902,"Approved","OW513"
"2023-05-09 05:00",11.908,"Approved","OW513"
"2023-05-09 06:00",11.911,"Approved","OW513"
"2023-05-09 07:00",11.673,"Approved","OW513"
"2023-05-09 08:00",11.652,"Approved","OW513"
"2023-05-09 09:00",11.638,"Approved","OW513"
"2023-05-09 10:00",11.634,"Approved","OW513"
"2023-05-09 11:00",11.626,"Approved","OW513"
"2023-05-09 12:00",11.618,"Approved","OW513"
"2023-05-09 13:00",11.617,"Approved","OW513"
"2023-05-09 14:00",11.61,"Approved","OW513"
"2023-05-09 15:00",11.607,"Approved","OW513"
"2023-05-09 16:00",11.82,"Approved","OW513"
"2023-05-09 17:00",11.875,"Approved","OW513"
"2023-05-09 18:00",11.647,"Approved","OW513"
"2023-05-09 19:00",11.624,"Approved","OW513"
"2023-05-09 20:00",11.61,"Approved","OW513"
"2023-05-09 21:00",11.61,"Approved","OW513"
"2023-05-09 22:00",11.837,"Approved","OW513"
"2023-05-09 23:00",11.87,"Approved","OW513"
"2023-05-10 00:00",11.646,"Approved","OW513"
"2023-05-10 01:00",11.619,"Approved","OW513"
"2023-05-10 02:00",11.612,"Approved","OW513"
"2023-05-10 03:00",11.848,"Approved","OW513"
"2023-05-10 04:00",11.882,"Approved","OW513"
"2023-05-10 05:00",11.892,"Approved","OW513"
"2023-05-10 06:00",11.905,"Approved","OW513"
"2023-05-10 07:00",11.905,"Approved","OW513"
"2023-05-10 08:00",11.686,"Approved","OW513"
"2023-05-10 09:00",11.648,"Approved","OW513"
"2023-05-10 10:00",11.634,"Approved","OW513"
"2023-05-10 11:00",11.63,"Approved","OW513"
"2023-05-10 12:00",11.62,"Approved","OW513"
"2023-05-10 13:00",11.612,"Approved","OW513"
"2023-05-10 14:00",11.606,"Approved","OW513"
"2023-05-10 15:00",11.604,"Approved","OW513"
"2023-05-10 16:00",11.603,"Approved","OW513"
"2023-05-10 17:00",11.598,"Approved","OW513"
"2023-05-10 18:00",11.595,"Approved","OW513"
"2023-05-10 19:00",11.819,"Approved","OW513"
"2023-05-10 20:00",11.855,"Approved","OW513"
"2023-05-10 21:00",11.636,"Approved","OW513"
"2023-05-10 22:00",11.611,"Approved","OW513"
"2023-05-10 23:00",11.601,"Approved","OW513"
"2023-05-11 00:00",11.846,"Approved","OW513"
"2023-05-11 01:00",11.88,"Approved","OW513"
"2023-05-11 02:00",11.888,"Approved","OW513"
"2023-05-11 03:00",11.902,"Approved","OW513"
"2023-05-11 04:00",11.909,"Approved","OW513"
"2023-05-11 05:00",11.913,"Approved","OW513"
"2023-05-11 06:00",11.772,"Approved","OW513"
"2023-05-11 07:00",11.65,"Approved","OW513"
"2023-05-11 08:00",11.634,"Approved","OW513"
"2023-05-11 09:00",11.629,"Approved","OW513"
"2023-05-11 10:00",11.621,"Approved","OW513"
"2023-05-11 11:00",11.609,"Approved","OW513"
"2023-05-11 12:00",11.605,"Approved","OW513"
"2023-05-11 13:00",11.604,"Approved","OW513"
"2023-05-11 14:00",11.6,"Approved","OW513"
"2023-05-11 15:00",11.598,"Approved","OW513"
"2023-05-11 16:00",11.8,"Approved","OW513"
"2023-05-11 17:00",11.85,"Approved","OW513"
"2023-05-11 18:00",11.699,"Approved","OW513"
"2023-05-11 19:00",11.615,"Approved","OW513"
"2023-05-11 20:00",11.608,"Approved","OW513"
"2023-05-11 21:00",11.599,"Approved","OW513"
"2023-05-11 22:00",11.599,"Approved","OW513"
"2023-05-11 23:00",11.862,"Approved","OW513"
"2023-05-12 00:00",11.874,"Approved","OW513"
"2023-05-12 01:00",11.888,"Approved","OW513"
"2023-05-12 02:00",11.898,"Approved","OW513"
"2023-05-12 03:00",11.907,"Approved","OW513"
"2023-05-12 04:00",11.912,"Approved","OW513"
"2023-05-12 05:00",11.91,"Approved","OW513"
"2023-05-12 06:00",11.656,"Approved","OW513"
"2023-05-12 07:00",11.636,"Approved","OW513"
"2023-05-12 08:00",11.626,"Approved","OW513"
"2023-05-12 09:00",11.619,"Approved","OW513"
"2023-05-12 10:00",11.609,"Approved","OW513"
"2023-05-12 11:00",11.604,"Approved","OW513"
"2023-05-12 12:00",11.599,"Approved","OW513"
"2023-05-12 13:00",11.597,"Approved","OW513"
"2023-05-12 14:00",11.593,"Approved","OW513"
"2023-05-12 15:00",11.59,"Approved","OW513"
"2023-05-12 16:00",11.806,"Approved","OW513"
"2023-05-12 17:00",11.847,"Approved","OW513"
"2023-05-12 18:00",11.645,"Approved","OW513"
"2023-05-12 19:00",11.608,"Approved","OW513"
"2023-05-12 20:00",11.596,"Approved","OW513"
"2023-05-12 21:00",11.595,"Approved","OW513"
"2023-05-12 22:00",11.828,"Approved","OW513"
"2023-05-12 23:00",11.868,"Approved","OW513"
"2023-05-13 00:00",11.882,"Approved","OW513"
"2023-05-13 01:00",11.891,"Approved","OW513"
"2023-05-13 02:00",11.896,"Approved","OW513"
"2023-05-13 03:00",11.906,"Approved","OW513"
"2023-05-13 04:00",11.908,"Approved","OW513"
"2023-05-13 05:00",11.675,"Approved","OW513"
"2023-05-13 06:00",11.641,"Approved","OW513"
"2023-05-13 07:00",11.627,"Approved","OW513"
"2023-05-13 08:00",11.618,"Approved","OW513"
"2023-05-13 09:00",11.609,"Approved","OW513"
"2023-05-13 10:00",11.602,"Approved","OW513"
"2023-05-13 11:00",11.596,"Approved","OW513"
"2023-05-13 12:00",11.593,"Approved","OW513"
"2023-05-13 13:00",11.59,"Approved","OW513"
"2023-05-13 14:00",11.588,"Approved","OW513"
"2023-05-13 15:00",11.581,"Approved","OW513"
"2023-05-13 16:00",11.602,"Approved","OW513"
"2023-05-13 17:00",11.834,"Approved","OW513"
"2023-05-13 18:00",11.71,"Approved","OW513"
"2023-05-13 19:00",11.601,"Approved","OW513"
"2023-05-13 20:00",11.592,"Approved","OW513"
"2023-05-13 21:00",11.583,"Approved","OW513"
"2023-05-13 22:00",11.578,"Approved","OW513"
"2023-05-13 23:00",11.578,"Approved","OW513"
"2023-05-14 00:00",11.827,"Approved","OW513"
"2023-05-14 01:00",11.852,"Approved","OW513"
"2023-05-14 02:00",11.868,"Approved","OW513"
"2023-05-14 03:00",11.876,"Approved","OW513"
"2023-05-14 04:00",11.882,"Approved","OW513"
"2023-05-14 05:00",11.801,"Approved","OW513"
"2023-05-14 06:00",11.626,"Approved","OW513"
"2023-05-14 07:00",11.613,"Approved","OW513"
"2023-05-14 08:00",11.597,"Approved","OW513"
"2023-05-14 09:00",11.592,"Approved","OW513"
"2023-05-14 10:00",11.587,"Approved","OW513"
"2023-05-14 11:00",11.58,"Approved","OW513"
"2023-05-14 12:00",11.575,"Approved","OW513"
"2023-05-14 13:00",11.571,"Approved","OW513"
"2023-05-14 14:00",11.571,"Approved","OW513"
"2023-05-14 15:00",11.566,"Approved","OW513"
"2023-05-14 16:00",11.562,"Approved","OW513"
"2023-05-14 17:00",11.562,"Approved","OW513"
"2023-05-14 18:00",11.813,"Approved","OW513"
"2023-05-14 19:00",11.826,"Approved","OW513"
"2023-05-14 20:00",11.595,"Approved","OW513"
"2023-05-14 21:00",11.579,"Approved","OW513"
"2023-05-14 22:00",11.715,"Approved","OW513"
"2023-05-14 23:00",11.837,"Approved","OW513"
"2023-05-15 00:00",11.853,"Approved","OW513"
"2023-05-15 01:00",12.035,"Approved","OW513"
"2023-05-15 02:00",12.046,"Approved","OW513"
"2023-05-15 03:00",12.065,"Approved","OW513"
"2023-05-15 04:00",11.907,"Approved","OW513"
"2023-05-15 05:00",11.774,"Approved","OW513"
"2023-05-15 06:00",11.635,"Approved","OW513"
"2023-05-15 07:00",11.618,"Approved","OW513"
"2023-05-15 08:00",11.725,"Approved","OW513"
"2023-05-15 09:00",11.853,"Approved","OW513"
"2023-05-15 10:00",11.856,"Approved","OW513"
"2023-05-15 11:00",11.613,"Approved","OW513"
"2023-05-15 12:00",11.598,"Approved","OW513"
"2023-05-15 13:00",11.588,"Approved","OW513"
"2023-05-15 14:00",11.582,"Approved","OW513"
"2023-05-15 15:00",11.572,"Approved","OW513"
"2023-05-15 16:00",11.821,"Approved","OW513"
"2023-05-15 17:00",11.846,"Approved","OW513"
"2023-05-15 18:00",11.854,"Approved","OW513"
"2023-05-15 19:00",11.618,"Approved","OW513"
"2023-05-15 20:00",11.589,"Approved","OW513"
"2023-05-15 21:00",11.779,"Approved","OW513"
"2023-05-15 22:00",11.86,"Approved","OW513"
"2023-05-15 23:00",12.076,"Approved","OW513"
"2023-05-16 00:00",12.103,"Approved","OW513"
"2023-05-16 01:00",12.13,"Approved","OW513"
"2023-05-16 02:00",11.935,"Approved","OW513"
"2023-05-16 03:00",11.922,"Approved","OW513"
"2023-05-16 04:00",11.93,"Approved","OW513"
"2023-05-16 05:00",11.722,"Approved","OW513"
"2023-05-16 06:00",11.646,"Approved","OW513"
"2023-05-16 07:00",11.628,"Approved","OW513"
"2023-05-16 08:00",11.766,"Approved","OW513"
"2023-05-16 09:00",11.892,"Approved","OW513"
"2023-05-16 10:00",11.905,"Approved","OW513"
"2023-05-16 11:00",11.75,"Approved","OW513"
"2023-05-16 12:00",11.631,"Approved","OW513"
"2023-05-16 13:00",11.615,"Approved","OW513"
"2023-05-16 14:00",11.605,"Approved","OW513"
"2023-05-16 15:00",11.598,"Approved","OW513"
"2023-05-16 16:00",11.859,"Approved","OW513"
"2023-05-16 17:00",11.877,"Approved","OW513"
"2023-05-16 18:00",11.754,"Approved","OW513"
"2023-05-16 19:00",11.611,"Approved","OW513"
"2023-05-16 20:00",11.595,"Approved","OW513"
"2023-05-16 21:00",11.586,"Approved","OW513"
"2023-05-16 22:00",11.866,"Approved","OW513"
"2023-05-16 23:00",11.888,"Approved","OW513"
"2023-05-17 00:00",11.992,"Approved","OW513"
"2023-05-17 01:00",12.11,"Approved","OW513"
"2023-05-17 02:00",12.125,"Approved","OW513"
"2023-05-17 03:00",12.018,"Approved","OW513"
"2023-05-17 04:00",11.947,"Approved","OW513"
"2023-05-17 05:00",11.751,"Approved","OW513"
"2023-05-17 06:00",11.65,"Approved","OW513"
"2023-05-17 07:00",11.632,"Approved","OW513"
"2023-05-17 08:00",11.616,"Approved","OW513"
"2023-05-17 09:00",11.875,"Approved","OW513"
"2023-05-17 10:00",11.889,"Approved","OW513"
"2023-05-17 11:00",11.895,"Approved","OW513"
"2023-05-17 12:00",11.635,"Approved","OW513"
"2023-05-17 13:00",11.611,"Approved","OW513"
"2023-05-17 14:00",11.602,"Approved","OW513"
"2023-05-17 15:00",11.594,"Approved","OW513"
"2023-05-17 16:00",11.862,"Approved","OW513"
"2023-05-17 17:00",11.886,"Approved","OW513"
"2023-05-17 18:00",11.897,"Approved","OW513"
"2023-05-17 19:00",11.618,"Approved","OW513"
"2023-05-17 20:00",11.593,"Approved","OW513"
"2023-05-17 21:00",11.836,"Approved","OW513"
"2023-05-17 22:00",11.864,"Approved","OW513"
"2023-05-17 23:00",11.873,"Approved","OW513"
"2023-05-18 00:00",12.087,"Approved","OW513"
"2023-05-18 01:00",12.106,"Approved","OW513"
"2023-05-18 02:00",11.914,"Approved","OW513"
"2023-05-18 03:00",11.91,"Approved","OW513"
"2023-05-18 04:00",11.721,"Approved","OW513"
"2023-05-18 05:00",11.634,"Approved","OW513"
"2023-05-18 06:00",11.613,"Approved","OW513"
"2023-05-18 07:00",11.878,"Approved","OW513"
"2023-05-18 08:00",11.898,"Approved","OW513"
"2023-05-18 09:00",11.905,"Approved","OW513"
"2023-05-18 10:00",11.902,"Approved","OW513"
"2023-05-18 11:00",11.624,"Approved","OW513"
"2023-05-18 12:00",11.604,"Approved","OW513"
"2023-05-18 13:00",11.593,"Approved","OW513"
"2023-05-18 14:00",11.581,"Approved","OW513"
"2023-05-18 15:00",11.575,"Approved","OW513"
"2023-05-18 16:00",11.591,"Approved","OW513"
"2023-05-18 17:00",11.842,"Approved","OW513"
"2023-05-18 18:00",11.859,"Approved","OW513"
"2023-05-18 19:00",11.867,"Approved","OW513"
"2023-05-18 20:00",11.603,"Approved","OW513"
"2023-05-18 21:00",11.708,"Approved","OW513"
"2023-05-18 22:00",11.865,"Approved","OW513"
"2023-05-18 23:00",11.882,"Approved","OW513"
"2023-05-19 00:00",11.892,"Approved","OW513"
"2023-05-19 01:00",11.897,"Approved","OW513"
"2023-05-19 02:00",11.903,"Approved","OW513"
"2023-05-19 03:00",11.906,"Approved","OW513"
"2023-05-19 04:00",11.908,"Approved","OW513"
"2023-05-19 05:00",11.691,"Approved","OW513"
"2023-05-19 06:00",11.619,"Approved","OW513"
"2023-05-19 07:00",11.715,"Approved","OW513"
"2023-05-19 08:00",11.87,"Approved","OW513"
"2023-05-19 09:00",11.881,"Approved","OW513"
"2023-05-19 10:00",11.893,"Approved","OW513"
"2023-05-19 11:00",11.875,"Approved","OW513"
"2023-05-19 12:00",11.624,"Approved","OW513"
"2023-05-19 13:00",11.605,"Approved","OW513"
"2023-05-19 14:00",11.597,"Approved","OW513"
"2023-05-19 15:00",11.847,"Approved","OW513"
"2023-05-19 16:00",11.887,"Approved","OW513"
"2023-05-19 17:00",11.899,"Approved","OW513"
"2023-05-19 18:00",11.909,"Approved","OW513"
"2023-05-19 19:00",11.915,"Approved","OW513"
"2023-05-19 20:00",11.66,"Approved","OW513"
"2023-05-19 21:00",11.613,"Approved","OW513"
"2023-05-19 22:00",11.597,"Approved","OW513"
"2023-05-19 23:00",11.586,"Approved","OW513"
"2023-05-20 00:00",11.85,"Approved","OW513"
"2023-05-20 01:00",11.871,"Approved","OW513"
"2023-05-20 02:00",11.879,"Approved","OW513"
"2023-05-20 03:00",12.038,"Approved","OW513"
"2023-05-20 04:00",12.106,"Approved","OW513"
"2023-05-20 05:00",12.118,"Approved","OW513"
"2023-05-20 06:00",11.928,"Approved","OW513"
"2023-05-20 07:00",11.756,"Approved","OW513"
"2023-05-20 08:00",11.641,"Approved","OW513"
"2023-05-20 09:00",11.623,"Approved","OW513"
"2023-05-20 10:00",11.609,"Approved","OW513"
"2023-05-20 11:00",11.598,"Approved","OW513"
"2023-05-20 12:00",11.588,"Approved","OW513"
"2023-05-20 13:00",11.579,"Approved","OW513"
"2023-05-20 14:00",11.571,"Approved","OW513"
"2023-05-20 15:00",11.568,"Approved","OW513"
"2023-05-20 16:00",11.564,"Approved","OW513"
"2023-05-20 17:00",11.839,"Approved","OW513"
"2023-05-20 18:00",11.862,"Approved","OW513"
"2023-05-20 19:00",11.781,"Approved","OW513"
"2023-05-20 20:00",11.584,"Approved","OW513"
"2023-05-20 21:00",11.576,"Approved","OW513"
"2023-05-20 22:00",11.839,"Approved","OW513"
"2023-05-20 23:00",11.852,"Approved","OW513"
"2023-05-21 00:00",11.859,"Approved","OW513"
"2023-05-21 01:00",12.063,"Approved","OW513"
"2023-05-21 02:00",12.072,"Approved","OW513"
"2023-05-21 03:00",11.898,"Approved","OW513"
"2023-05-21 04:00",11.898,"Approved","OW513"
"2023-05-21 05:00",11.654,"Approved","OW513"
"2023-05-21 06:00",11.61,"Approved","OW513"
"2023-05-21 07:00",11.599,"Approved","OW513"
"2023-05-21 08:00",11.586,"Approved","OW513"
"2023-05-21 09:00",11.861,"Approved","OW513"
"2023-05-21 10:00",11.877,"Approved","OW513"
"2023-05-21 11:00",11.692,"Approved","OW513"
"2023-05-21 12:00",11.597,"Approved","OW513"
"2023-05-21 13:00",11.583,"Approved","OW513"
"2023-05-21 14:00",11.57,"Approved","OW513"
"2023-05-21 15:00",11.561,"Approved","OW513"
"2023-05-21 16:00",11.552,"Approved","OW513"
"2023-05-21 17:00",11.554,"Approved","OW513"
"2023-05-21 18:00",11.552,"Approved","OW513"
"2023-05-21 19:00",11.782,"Approved","OW513"
"2023-05-21 20:00",11.828,"Approved","OW513"
"2023-05-21 21:00",11.842,"Approved","OW513"
"2023-05-21 22:00",11.576,"Approved","OW513"
"2023-05-21 23:00",11.674,"Approved","OW513"
"2023-05-22 00:00",11.851,"Approved","OW513"
"2023-05-22 01:00",11.861,"Approved","OW513"
"2023-05-22 02:00",11.878,"Approved","OW513"
"2023-05-22 03:00",11.884,"Approved","OW513"
"2023-05-22 04:00",11.886,"Approved","OW513"
"2023-05-22 05:00",11.613,"Approved","OW513"
"2023-05-22 06:00",11.588,"Approved","OW513"
"2023-05-22 07:00",11.577,"Approved","OW513"
"2023-05-22 08:00",11.567,"Approved","OW513"
"2023-05-22 09:00",11.815,"Approved","OW513"
"2023-05-22 10:00",11.784,"Approved","OW513"
"2023-05-22 11:00",11.573,"Approved","OW513"
"2023-05-22 12:00",11.557,"Approved","OW513"
"2023-05-22 13:00",11.553,"Approved","OW513"
"2023-05-22 14:00",11.544,"Approved","OW513"
"2023-05-22 15:00",11.539,"Approved","OW513"
"2023-05-22 16:00",11.536,"Approved","OW513"
"2023-05-22 17:00",11.534,"Approved","OW513"
"2023-05-22 18:00",11.622,"Approved","OW513"
"2023-05-22 19:00",11.827,"Approved","OW513"
"2023-05-22 20:00",11.841,"Approved","OW513"
"2023-05-22 21:00",11.565,"Approved","OW513"
"2023-05-22 22:00",11.656,"Approved","OW513"
"2023-05-22 23:00",11.824,"Approved","OW513"
"2023-05-23 00:00",11.84,"Approved","OW513"
"2023-05-23 01:00",11.849,"Approved","OW513"
"2023-05-23 02:00",11.858,"Approved","OW513"
"2023-05-23 03:00",11.864,"Approved","OW513"
"2023-05-23 04:00",11.866,"Approved","OW513"
"2023-05-23 05:00",11.857,"Approved","OW513"
"2023-05-23 06:00",11.6,"Approved","OW513"
"2023-05-23 07:00",11.577,"Approved","OW513"
"2023-05-23 08:00",11.568,"Approved","OW513"
"2023-05-23 09:00",11.819,"Approved","OW513"
"2023-05-23 10:00",11.851,"Approved","OW513"
"2023-05-23 11:00",11.611,"Approved","OW513"
"2023-05-23 12:00",11.575,"Approved","OW513"
"2023-05-23 13:00",11.562,"Approved","OW513"
"2023-05-23 14:00",11.552,"Approved","OW513"
"2023-05-23 15:00",11.545,"Approved","OW513"
"2023-05-23 16:00",11.579,"Approved","OW513"
"2023-05-23 17:00",11.814,"Approved","OW513"
"2023-05-23 18:00",11.83,"Approved","OW513"
"2023-05-23 19:00",11.681,"Approved","OW513"
"2023-05-23 20:00",11.57,"Approved","OW513"
"2023-05-23 21:00",11.553,"Approved","OW513"
"2023-05-23 22:00",11.817,"Approved","OW513"
"2023-05-23 23:00",11.851,"Approved","OW513"
"2023-05-24 00:00",11.859,"Approved","OW513"
"2023-05-24 01:00",12.03,"Approved","OW513"
"2023-05-24 02:00",12.087,"Approved","OW513"
"2023-05-24 03:00",11.924,"Approved","OW513"
"2023-05-24 04:00",11.908,"Approved","OW513"
"2023-05-24 05:00",11.9,"Approved","OW513"
"2023-05-24 06:00",11.623,"Approved","OW513"
"2023-05-24 07:00",11.596,"Approved","OW513"
"2023-05-24 08:00",11.581,"Approved","OW513"
"2023-05-24 09:00",11.843,"Approved","OW513"
"2023-05-24 10:00",11.86,"Approved","OW513"
"2023-05-24 11:00",11.864,"Approved","OW513"
"2023-05-24 12:00",11.61,"Approved","OW513"
"2023-05-24 13:00",11.59,"Approved","OW513"
"2023-05-24 14:00",11.579,"Approved","OW513"
"2023-05-24 15:00",11.605,"Approved","OW513"
"2023-05-24 16:00",11.862,"Approved","OW513"
"2023-05-24 17:00",11.875,"Approved","OW513"
"2023-05-24 18:00",11.639,"Approved","OW513"
"2023-05-24 19:00",11.591,"Approved","OW513"
"2023-05-24 20:00",11.576,"Approved","OW513"
"2023-05-24 21:00",11.613,"Approved","OW513"
"2023-05-24 22:00",11.838,"Approved","OW513"
"2023-05-24 23:00",11.858,"Approved","OW513"
"2023-05-25 00:00",11.866,"Approved","OW513"
"2023-05-25 01:00",12.102,"Approved","OW513"
"2023-05-25 02:00",12.125,"Approved","OW513"
"2023-05-25 03:00",12.066,"Approved","OW513"
"2023-05-25 04:00",11.922,"Approved","OW513"
"2023-05-25 05:00",11.919,"Approved","OW513"
"2023-05-25 06:00",11.66,"Approved","OW513"
"2023-05-25 07:00",11.629,"Approved","OW513"
"2023-05-25 08:00",11.618,"Approved","OW513"
"2023-05-25 09:00",11.878,"Approved","OW513"
"2023-05-25 10:00",11.896,"Approved","OW513"
"2023-05-25 11:00",11.701,"Approved","OW513"
"2023-05-25 12:00",11.621,"Approved","OW513"
"2023-05-25 13:00",11.604,"Approved","OW513"
"2023-05-25 14:00",11.591,"Approved","OW513"
"2023-05-25 15:00",11.592,"Approved","OW513"
"2023-05-25 16:00",11.859,"Approved","OW513"
"2023-05-25 17:00",11.868,"Approved","OW513"
"2023-05-25 18:00",11.792,"Approved","OW513"
"2023-05-25 19:00",11.604,"Approved","OW513"
"2023-05-25 20:00",11.59,"Approved","OW513"
"2023-05-25 21:00",11.799,"Approved","OW513"
"2023-05-25 22:00",11.878,"Approved","OW513"
"2023-05-25 23:00",11.89,"Approved","OW513"
"2023-05-26 00:00",12.09,"Approved","OW513"
"2023-05-26 01:00",12.12,"Approved","OW513"
"2023-05-26 02:00",11.994,"Approved","OW513"
"2023-05-26 03:00",11.945,"Approved","OW513"
"2023-05-26 04:00",11.941,"Approved","OW513"
"2023-05-26 05:00",11.658,"Approved","OW513"
"2023-05-26 06:00",11.631,"Approved","OW513"
"2023-05-26 07:00",11.713,"Approved","OW513"
"2023-05-26 08:00",11.877,"Approved","OW513"
"2023-05-26 09:00",11.891,"Approved","OW513"
"2023-05-26 10:00",11.9,"Approved","OW513"
"2023-05-26 11:00",11.836,"Approved","OW513"
"2023-05-26 12:00",11.636,"Approved","OW513"
"2023-05-26 13:00",11.615,"Approved","OW513"
"2023-05-26 14:00",11.607,"Approved","OW513"
"2023-05-26 15:00",11.599,"Approved","OW513"
"2023-05-26 16:00",11.592,"Approved","OW513"
"2023-05-26 17:00",11.85,"Approved","OW513"
"2023-05-26 18:00",11.879,"Approved","OW513"
"2023-05-26 19:00",11.793,"Approved","OW513"
"2023-05-26 20:00",11.612,"Approved","OW513"
"2023-05-26 21:00",11.597,"Approved","OW513"
"2023-05-26 22:00",11.589,"Approved","OW513"
"2023-05-26 23:00",11.811,"Approved","OW513"
"2023-05-27 00:00",11.862,"Approved","OW513"
"2023-05-27 01:00",11.878,"Approved","OW513"
"2023-05-27 02:00",11.886,"Approved","OW513"
"2023-05-27 03:00",12.104,"Approved","OW513"
"2023-05-27 04:00",12.019,"Approved","OW513"
"2023-05-27 05:00",11.922,"Approved","OW513"
"2023-05-27 06:00",11.672,"Approved","OW513"
"2023-05-27 07:00",11.636,"Approved","OW513"
"2023-05-27 08:00",11.62,"Approved","OW513"
"2023-05-27 09:00",11.861,"Approved","OW513"
"2023-05-27 10:00",11.83,"Approved","OW513"
"2023-05-27 11:00",11.624,"Approved","OW513"
"2023-05-27 12:00",11.605,"Approved","OW513"
"2023-05-27 13:00",11.599,"Approved","OW513"
"2023-05-27 14:00",11.59,"Approved","OW513"
"2023-05-27 15:00",11.586,"Approved","OW513"
"2023-05-27 16:00",11.583,"Approved","OW513"
"2023-05-27 17:00",11.575,"Approved","OW513"